Weather History for KSJN - June, 2013

Change the Weather History Date:

Sunday, June 30, 2013

  Actual Average (KSOW) Record (KSOW)
Temperature  
Mean Temperature 76 °F -  
Max Temperature 95 °F 83 °F 95 °F (1974)
Min Temperature 57 °F 65 °F 42 °F (1968)
Cooling Degree Days 11    
Growing Degree Days 26 (Base 50)    
Moisture  
Dew Point 37 °F    
Average Humidity 22    
Maximum Humidity 43    
Minimum Humidity 8    
Precipitation  
Precipitation 0.02 in - - ()
Sea Level Pressure  
Sea Level Pressure 29.82 in    
Wind  
Wind Speed 6 mph (NE)    
Max Wind Speed 24 mph    
Max Gust Speed 39 mph    
Visibility 10 miles    
Events Rain , Thunderstorm    
Averages and records for this station are not official NWS values.
T = Trace of Precipitation, MM = Missing Value Source: NWS Daily Summary

Daily Weather History Graph

Daily Weather History Graph

Search for Another Location

Airport or City:

Trip Planner

Search our weather history database for the weather conditions in past years. The results will help you decide how hot, cold, wet, or windy it might be!

Date:

Astronomy

Jun. 30, 2013 Rise Set
Actual Time 5:08 AM MST 7:34 PM MST
Civil Twilight 4:38 AM MST 8:03 PM MST
Nautical Twilight 4:02 AM MST 8:39 PM MST
Astronomical Twilight 3:22 AM MST 9:19 PM MST
Moon No Moon Rise 1:02 PM MST (6/30)
Length of Visible Light 15h 24m
Length of Day
14h 25m
Last Quarter, 44% of the Moon is Illuminated
Jun 30
Last Quarter
Jul 8
New
Jul 15
First Quarter
Jul 22
Full
Jul 29
Last Quarter

Hourly Weather History & Observations

Time (MST) Temp. Dew Point Humidity Pressure Visibility Wind Dir Wind Speed Gust Speed Precip Events Conditions
12:54 AM 75.0 °F 41.0 °F 29% 29.79 in 10.0 mi South 6.9 mph - N/A   Clear
1:54 AM 72.0 °F 41.0 °F 33% 29.79 in 10.0 mi Calm Calm - N/A   Clear
2:54 AM 66.0 °F 41.0 °F 40% 29.81 in 10.0 mi Calm Calm - N/A   Clear
3:54 AM 64.9 °F 39.9 °F 40% 29.81 in 10.0 mi Calm Calm - N/A   Clear
4:54 AM 64.9 °F 39.9 °F 40% 29.82 in 10.0 mi Calm Calm - N/A   Clear
5:54 AM 64.0 °F 41.0 °F 43% 29.84 in 10.0 mi Calm Calm - N/A   Clear
6:54 AM 70.0 °F 42.1 °F 36% 29.85 in 10.0 mi Calm Calm - N/A   Clear
7:54 AM 79.0 °F 41.0 °F 26% 29.85 in 10.0 mi Calm Calm - N/A   Clear
8:54 AM 84.0 °F 41.0 °F 22% 29.84 in 10.0 mi NNE 5.8 mph - N/A   Clear
9:54 AM 86.0 °F 39.9 °F 20% 29.82 in 10.0 mi NNE 5.8 mph - N/A   Clear
10:54 AM 91.0 °F 37.9 °F 15% 29.80 in 10.0 mi NNW 4.6 mph - N/A   Clear
11:54 AM 95.0 °F 37.0 °F 13% 29.77 in 10.0 mi Variable 5.8 mph - N/A   Clear
12:54 PM 98.1 °F 35.1 °F 11% 29.73 in 10.0 mi NNW 12.7 mph - N/A   Clear
1:54 PM 97.0 °F 33.1 °F 11% 29.70 in 10.0 mi East 8.1 mph 17.3 mph N/A   Clear
2:54 PM 98.1 °F 32.0 °F 10% 29.70 in 10.0 mi Variable 5.8 mph - N/A   Clear
3:24 PM 96.8 °F 30.2 °F 10% 30.03 in 10.0 mi NE 24.2 mph 34.5 mph N/A Thunderstorm Clear
3:39 PM 96.8 °F 30.2 °F 10% 30.03 in 10.0 mi NNE 19.6 mph 38.0 mph N/A   Clear
3:54 PM 98.1 °F 30.9 °F 9% 29.68 in 10.0 mi NNE 17.3 mph 25.3 mph N/A   Clear
4:54 PM 97.0 °F 30.0 °F 9% 29.68 in 10.0 mi NNE 9.2 mph - N/A   Clear
5:54 PM 95.0 °F 30.9 °F 10% 29.68 in 10.0 mi North 9.2 mph - N/A   Clear
6:54 PM 93.0 °F 30.0 °F 11% 29.68 in 10.0 mi NNW 5.8 mph - N/A   Clear
7:54 PM 87.1 °F 39.0 °F 18% 29.69 in 10.0 mi South 19.6 mph 28.8 mph N/A   Clear
8:29 PM 89.6 °F 33.8 °F 14% 30.08 in 10.0 mi NNE 9.2 mph 32.2 mph 0.00 in   Mostly Cloudy
8:38 PM 84.2 °F 39.2 °F 20% 30.09 in 9.0 mi Variable 6.9 mph 39.1 mph 0.00 in Rain Light Rain
8:54 PM 84.0 °F 42.1 °F 23% 29.76 in 10.0 mi East 12.7 mph 25.3 mph 0.00 in   Mostly Cloudy
9:54 PM 81.0 °F 42.1 °F 25% 29.81 in 10.0 mi SSW 4.6 mph - 0.00 in   Mostly Cloudy
10:54 PM 79.0 °F 43.0 °F 28% 29.81 in 10.0 mi South 5.8 mph - 0.00 in   Clear
11:54 PM 75.0 °F 46.9 °F 37% 29.78 in 10.0 mi South 9.2 mph - N/A   Clear